Simultaneous Nadir Overpasses (SNOs) Predictions

Prediction of SNOs between GOES-16 and AQUA Satellite Orbit:

Table of predicted SNOs for the next 14.0 days since TLE Epoch: 2/28/2025
Index Date Time (GOES-16) GOES-16 Lat,Lon AQUA Lat,Lon Distance(km) Time Diff (sec)
1 03/01/2025 07:18:09 -0.06, -75.20 -0.77, -71.94 371.77 80
2 03/01/2025 19:37:39 0.06, -75.19 -0.24, -76.65 165.77 80
3 03/03/2025 19:20:49 0.06, -75.21 0.76, -71.88 378.48 80
4 03/04/2025 07:40:11 -0.06, -75.22 0.22, -76.56 152.09 80
5 03/06/2025 07:17:59 -0.06, -75.23 -0.78, -71.77 393.03 80
6 03/06/2025 19:37:29 0.05, -75.22 -0.24, -76.49 144.19 80
7 03/08/2025 19:20:36 0.05, -75.24 0.82, -71.71 402.72 80
8 03/09/2025 07:39:57 -0.04, -75.27 0.17, -76.38 126.81 80
9 03/11/2025 07:17:41 -0.03, -75.29 -0.81, -71.58 421.93 80
10 03/11/2025 19:37:10 0.03, -75.28 -0.19, -76.29 114.48 80
11 03/13/2025 19:20:13 0.02, -75.33 0.86, -71.49 436.43 80
12 03/14/2025 07:39:33 -0.02, -75.36 0.15, -76.16 91.82 80
